[[{"header":{"parameterUnit":"m.s-1","parameterCategory":1,"la1":30.2991,"la2":30.254,"lo1":-89.0895,"lo2":-89.0444,"dy":0.0017,"dx":0.0017,"nx":28,"ny":28,"refTime":"2024-06-11T21:00:00:Z","depth":0,"parameterNumber":2,"parameterNumberName":"U-component_of_WINDS"},"data":[0,0,0,0,0,0,0,0,0,0,0,0,0,0,0,0,0,0,0,0,0,0,0,0,0,0,0,0,0,0,0,0,0,0,0,0,0,0,0,0,0,0,0,0,0,0,0,0,0,0,0,0,0,0,0,0,0,0,-2.5925,-2.5925,0,-2.5929,-2.593,-2.593,-2.5841,-2.5838,-2.5836,-2.5834,-2.5836,-2.5838,-2.584,0,0,0,0,0,0,0,0,0,0,0,0,0,-2.5838,-2.584,-2.5925,-2.5925,-2.5925,-2.5929,-2.593,-2.593,-2.5841,-2.5838,-2.5835,-2.5833,-2.5835,-2.5838,-2.584,0,0,0,0,0,0,0,0,0,0,0,0,0,-2.5863,-2.5841,-2.5925,-2.5882,-2.5878,-2.5929,-2.593,-2.593,-2.5842,-2.5838,-2.5835,-2.5831,-2.5834,-2.5837,-2.5841,-2.5933,0,0,-2.5851,-2.5853,0,0,0,0,0,0,0,0,-2.5861,-2.5866,-2.5888,-2.5885,-2.5881,-2.5881,-2.5899,-2.5931,-2.5843,-2.5855,-2.5834,-2.5829,-2.5853,-2.5855,-2.5864,-2.5933,-2.5933,-2.5851,-2.5853,-2.5855,-2.5856,0,0,0,0,0,0,0,-2.586,-2.5865,-2.5927,-2.5888,-2.5884,-2.5861,-2.5861,-2.5905,-2.5874,-2.5854,-2.5848,-2.5849,-2.5851,-2.5861,-2.5863,-2.5933,-2.5851,-2.5854,-2.5856,-2.5858,-2.6079,-2.6083,0,0,0,0,0,0,-2.5864,-2.5864,-2.5926,-2.5927,-2.5862,-2.5866,-2.5865,-2.5884,-2.5874,-2.5869,-2.5852,-2.5845,-2.5856,-2.5859,-2.5863,-2.5969,-2.5855,-2.5858,-2.586,-2.6075,-2.608,-2.6084,0,0,0,0,0,0,-2.5863,-2.5871,-2.5926,-2.5894,-2.5899,-2.5871,-2.5893,-2.5886,-2.5896,-2.5873,-2.5866,-2.5868,-2.5854,-2.5858,-2.5916,-2.5968,-2.586,-2.5863,-2.6071,-2.6077,-2.6082,-2.6184,0,0,0,0,0,0,-2.5861,-2.5871,-2.5906,-2.5895,-2.5901,-2.5981,-2.5897,-2.5889,-2.5902,-2.5893,-2.5886,-2.5881,-2.5851,-2.5912,-2.592,-2.5971,-2.5865,-2.6066,-2.6073,-2.608,-2.6176,-2.6193,-2.6207,0,0,0,0,0,-2.5858,-2.5934,-2.5908,-2.5916,-2.5945,-2.5984,-2.5987,-2.5952,-2.5907,-2.5942,-2.5927,-2.5881,-2.5962,-2.5919,-2.5927,-2.598,-2.6062,-2.6071,-2.608,-2.6169,-2.619,-2.6207,0,0,0,0,0,0,-2.5949,-2.5931,-2.5903,-2.5978,-2.5983,-2.5969,-2.6011,-2.5975,-2.5992,-2.5983,-2.5938,-2.5937,-2.6003,-2.5997,-2.5949,-2.6069,-2.6004,-2.6015,-2.6069,-2.6089,-2.6104,-2.6102,-2.5868,0,0,0,0,0,-2.5979,-2.6013,-2.5995,-2.6063,-2.6067,-2.604,-2.6055,-2.6028,-2.6031,-2.6033,-2.6022,-2.6027,-2.6053,-2.6071,-2.6094,-2.6176,-2.6172,-2.6217,-2.6232,-2.6245,-2.6254,-2.6296,-2.6315,-2.6112,-2.6112,-2.6112,0,0,-2.6038,-2.6033,-2.6057,-2.6081,-2.6082,-2.6118,-2.6042,-2.6082,-2.6108,-2.6039,-2.6093,-2.6086,-2.6088,-2.6159,-2.6189,-2.6156,-2.631,-2.6256,-2.6267,-2.6268,-2.6307,-2.6326,-2.6343,-2.6118,-2.6117,-2.6116,0,0,-2.6165,-2.6166,-2.6221,-2.6225,-2.6228,-2.6209,-2.6223,-2.6215,-2.6208,-2.6262,-2.6211,-2.6241,-2.6288,-2.6291,-2.6299,-2.643,-2.6388,-2.6439,-2.6519,-2.6561,-2.6577,-2.659,-2.6635,-2.6652,-2.6449,-2.6449,-2.6449,0,-2.6238,-2.629,-2.6255,-2.6299,-2.6311,-2.6252,-2.6308,-2.6313,-2.6324,-2.6333,-2.6296,-2.6354,-2.6351,-2.6421,-2.6454,-2.6463,-2.6476,-2.6438,-2.6578,-2.6591,-2.6603,-2.6646,-2.6663,-2.6455,-2.6454,-2.6454,-2.6453,0,-2.638,-2.6417,-2.6462,-2.6475,-2.6492,-2.6542,-2.6514,-2.6536,-2.6508,-2.6493,-2.655,-2.6545,-2.6566,-2.6581,-2.6554,-2.6648,-2.6627,-2.6586,-2.6519,-2.6629,-2.6668,-2.6684,-2.6463,-2.6461,-2.6459,-2.6458,0,0,-2.656,-2.6555,-2.6572,-2.6577,-2.6578,-2.6605,-2.6653,-2.6675,-2.6694,-2.6704,-2.6742,-2.6784,-2.6745,-2.6755,-2.6728,-2.6765,-2.6868,-2.6718,-2.6717,-2.6744,-2.6969,-2.6999,-2.7018,-2.6842,-2.6845,-2.6847,-2.6968,0,-2.6682,-2.6763,-2.6734,-2.6817,-2.685,-2.6797,-2.6838,-2.6843,-2.6831,-2.6857,-2.6844,-2.6874,-2.6822,-2.6827,-2.6862,-2.6848,-2.6912,-2.6839,-2.6874,-2.6876,-2.6873,-2.7039,-2.707,-2.7184,-2.6984,-2.6986,-2.6988,0,-2.6833,-2.685,-2.6937,-2.6933,-2.6946,-2.6984,-2.7002,-2.7028,-2.7033,-2.7022,-2.7034,-2.6999,-2.7045,-2.6982,-2.7044,-2.6995,-2.7009,-2.7005,-2.7008,-2.7007,-2.6936,-2.704,-2.722,-2.7236,-2.7012,-2.701,-2.7008,0,-2.6953,-2.6999,-2.7056,-2.7063,-2.706,-2.7088,-2.7088,-2.7089,-2.7104,-2.712,-2.7129,-2.7151,-2.7161,-2.7178,-2.7151,-2.7107,-2.7216,-2.7151,-2.7207,-2.7207,-2.7229,-2.7227,-2.7411,-2.7243,-2.7243,-2.7243,-2.7242,0,-2.7089,-2.7144,-2.711,-2.7145,-2.7205,-2.7172,-2.7232,-2.7226,-2.7228,-2.726,-2.7216,-2.7247,-2.721,-2.7238,-2.7217,-2.7271,-2.7277,-2.7268,-2.7261,-2.727,-2.7271,-2.7276,-2.7266,-2.7247,-2.7246,-2.7245,-2.7244,0,-2.7231,-2.7212,-2.7271,-2.7264,-2.7264,-2.7308,-2.7302,-2.7334,-2.7321,-2.7363,-2.7371,-2.7349,-2.738,-2.7355,-2.7385,-2.7371,-2.7441,-2.7425,-2.744,-2.7434,-2.749,-2.7484,-2.768,-2.7704,-2.7524,-2.7526,-2.7528,0,-2.7318,-2.7359,-2.7358,-2.7377,-2.738,-2.7412,-2.7428,-2.7398,-2.7416,-2.7426,-2.7456,-2.7484,-2.7503,-2.7555,-2.7541,-2.7564,-2.7545,-2.7613,-2.7548,-2.7556,-2.7543,-2.754,-2.7543,-2.7625,-2.7627,-2.7629,-2.763,0,-2.7473,-2.7462,-2.7487,-2.751,-2.753,-2.7546,-2.7558,-2.7577,-2.7546,-2.7569,-2.76,-2.7616,-2.7647,-2.7674,-2.7693,-2.7692,-2.7655,-2.7652,-2.7665,-2.7672,-2.7678,-2.7673,-2.7472,-2.7646,-2.7644,-2.7643,-2.7642,-2.7642,-2.7587,-2.7621,-2.7626,-2.7656,-2.7663,-2.7676,-2.7706,-2.7698,-2.7724,-2.7747,-2.7728,-2.7766,-2.777,-2.7792,-2.7796,-2.7824,-2.7796,-2.7816,-2.782,-2.7825,-2.7832,-2.7678,-2.7828,-2.7827,-2.7827,-2.7826,-2.7826,0,-2.7737,-2.7739,-2.7767,-2.7787,-2.7811,-2.7778,-2.779,-2.7811,-2.7845,-2.7854,-2.7875,-2.7911,-2.7938,-2.7929,-2.7952,-2.7977,-2.796,-2.7983,-2.7979,-2.7979,-2.7857,-2.7842,-2.7996,-2.7996,-2.7996,-2.7996,-2.7996,-2.7996,-2.7818,-2.7873,-2.7864,-2.7922,-2.7923,-2.796,-2.797,-2.7982,-2.7988,-2.8031,-2.8054,-2.8048,-2.8049,-2.8073,-2.8096,-2.8092,-2.8101,-2.813,-2.812,-2.8005,-2.7988,-2.7972,-2.7957,-2.8133,-2.8133,-2.8239,-2.824,-2.8241]},{"header":{"parameterUnit":"m.s-1","parameterCategory":1,"la1":30.2991,"la2":30.254,"lo1":-89.0895,"lo2":-89.0444,"dy":0.0017,"dx":0.0017,"nx":28,"ny":28,"refTime":"2024-06-11T21:00:00:Z","depth":0,"parameterNumber":3,"parameterNumberName":"V-component_of_WINDS"},"data":[0,0,0,0,0,0,0,0,0,0,0,0,0,0,0,0,0,0,0,0,0,0,0,0,0,0,0,0,0,0,0,0,0,0,0,0,0,0,0,0,0,0,0,0,0,0,0,0,0,0,0,0,0,0,0,0,0,0,-2.9174,-2.9175,0,-2.923,-2.9231,-2.9232,-2.9217,-2.9216,-2.9215,-2.9214,-2.9268,-2.927,-2.9273,0,0,0,0,0,0,0,0,0,0,0,0,0,-2.905,-2.9053,-2.9174,-2.9175,-2.9176,-2.923,-2.9231,-2.9232,-2.9217,-2.9216,-2.9215,-2.9213,-2.9267,-2.927,-2.9273,0,0,0,0,0,0,0,0,0,0,0,0,0,-2.9105,-2.9053,-2.9174,-2.9175,-2.9176,-2.923,-2.9231,-2.9232,-2.9218,-2.9216,-2.9214,-2.9213,-2.9266,-2.927,-2.9273,-2.9329,0,0,-2.9284,-2.9286,0,0,0,0,0,0,0,0,-2.9102,-2.9109,-2.9174,-2.9175,-2.9176,-2.9215,-2.9207,-2.9264,-2.9218,-2.9202,-2.9214,-2.9212,-2.9251,-2.9256,-2.927,-2.9331,-2.9334,-2.9285,-2.9287,-2.9289,-2.929,0,0,0,0,0,0,0,-2.9098,-2.9107,-2.9196,-2.9175,-2.9176,-2.9171,-2.9177,-2.9218,-2.9235,-2.9203,-2.9202,-2.9209,-2.9251,-2.9267,-2.9271,-2.9335,-2.9285,-2.9288,-2.929,-2.9292,-2.9443,-2.9445,0,0,0,0,0,0,-2.9094,-2.9104,-2.9195,-2.9198,-2.9134,-2.9175,-2.9182,-2.9204,-2.9234,-2.9238,-2.921,-2.9208,-2.9261,-2.9267,-2.9273,-2.9339,-2.9289,-2.9292,-2.9294,-2.9441,-2.9443,-2.9445,0,0,0,0,0,0,-2.9092,-2.9102,-2.9192,-2.9151,-2.9162,-2.9179,-2.9204,-2.9206,-2.9221,-2.924,-2.9243,-2.9223,-2.926,-2.9268,-2.9315,-2.9341,-2.9294,-2.9297,-2.9439,-2.9442,-2.9444,-2.9473,0,0,0,0,0,0,-2.9088,-2.9102,-2.9124,-2.9151,-2.9164,-2.9235,-2.9206,-2.9208,-2.9228,-2.9226,-2.9253,-2.9256,-2.9259,-2.931,-2.9319,-2.9345,-2.93,-2.9437,-2.944,-2.9443,-2.947,-2.9476,-2.9482,0,0,0,0,0,-2.9084,-2.9129,-2.9125,-2.9136,-2.9193,-2.9236,-2.9243,-2.9248,-2.923,-2.9252,-2.9264,-2.9255,-2.9337,-2.9315,-2.9325,-2.9353,-2.9435,-2.9439,-2.9443,-2.9467,-2.9475,-2.9482,0,0,0,0,0,0,-2.9103,-2.9133,-2.9129,-2.9185,-2.9208,-2.9234,-2.9261,-2.9256,-2.9284,-2.9281,-2.9284,-2.929,-2.9338,-2.935,-2.9325,-2.9407,-2.9383,-2.9389,-2.9398,-2.9406,-2.9412,-2.9407,-2.9303,0,0,0,0,0,-2.9114,-2.9148,-2.9172,-2.9219,-2.9231,-2.9244,-2.9263,-2.9265,-2.9289,-2.9298,-2.9314,-2.9336,-2.9367,-2.9387,-2.9416,-2.9472,-2.9476,-2.9496,-2.9502,-2.9507,-2.9512,-2.954,-2.9549,-2.9458,-2.9458,-2.9458,0,0,-2.9137,-2.9157,-2.9178,-2.9223,-2.9242,-2.9276,-2.9253,-2.929,-2.9314,-2.9303,-2.9349,-2.9361,-2.9386,-2.9437,-2.946,-2.9449,-2.9538,-2.9512,-2.9516,-2.9518,-2.9545,-2.9554,-2.9561,-2.9461,-2.9461,-2.946,0,0,-2.9195,-2.9215,-2.9256,-2.9275,-2.9303,-2.9312,-2.9321,-2.9348,-2.9356,-2.9402,-2.9394,-2.9423,-2.9476,-2.9494,-2.951,-2.9575,-2.9567,-2.9584,-2.9615,-2.9643,-2.965,-2.9657,-2.9678,-2.9686,-2.9589,-2.9589,-2.9589,0,-2.9219,-2.9271,-2.9277,-2.9315,-2.9334,-2.9327,-2.9367,-2.9385,-2.9421,-2.9434,-2.9421,-2.9487,-2.9504,-2.9558,-2.9574,-2.9588,-2.9598,-2.9581,-2.9649,-2.9656,-2.9661,-2.9682,-2.969,-2.9591,-2.9591,-2.9591,-2.9591,0,-2.9299,-2.9335,-2.9364,-2.94,-2.9423,-2.9462,-2.9472,-2.9494,-2.9494,-2.9503,-2.9549,-2.9569,-2.9601,-2.9615,-2.9614,-2.9669,-2.9661,-2.9648,-2.9624,-2.9672,-2.9691,-2.9699,-2.9594,-2.9593,-2.9593,-2.9592,0,0,-2.937,-2.9409,-2.942,-2.9436,-2.9467,-2.9494,-2.9532,-2.9565,-2.9583,-2.9608,-2.9639,-2.9684,-2.9673,-2.9691,-2.9692,-2.9717,-2.9765,-2.9702,-2.9702,-2.9712,-2.9825,-2.9833,-2.9842,-2.9761,-2.9762,-2.9763,-2.9822,0,-2.943,-2.9499,-2.9505,-2.9565,-2.9597,-2.9591,-2.9624,-2.9645,-2.9655,-2.9683,-2.9693,-2.9725,-2.9708,-2.9719,-2.9743,-2.9754,-2.9788,-2.975,-2.9787,-2.9789,-2.978,-2.9853,-2.9861,-2.9916,-2.983,-2.9831,-2.9832,0,-2.951,-2.9538,-2.9602,-2.9627,-2.9641,-2.9671,-2.9701,-2.9728,-2.9752,-2.9757,-2.9778,-2.9776,-2.9813,-2.9788,-2.9839,-2.9813,-2.9829,-2.9836,-2.9838,-2.9841,-2.9813,-2.9856,-2.9934,-2.9942,-2.9845,-2.9844,-2.9843,0,-2.9553,-2.9608,-2.9653,-2.9667,-2.9698,-2.9718,-2.9732,-2.9755,-2.9774,-2.98,-2.9812,-2.9842,-2.9858,-2.9881,-2.9886,-2.9868,-2.9936,-2.9912,-2.994,-2.994,-2.9954,-2.9952,-3.0034,-2.9966,-2.9966,-2.9966,-2.9966,0,-2.9619,-2.9658,-2.9673,-2.97,-2.9743,-2.9749,-2.9791,-2.9804,-2.9824,-2.9852,-2.9849,-2.9875,-2.9882,-2.9909,-2.9914,-2.9954,-2.9962,-2.9966,-2.9966,-2.9965,-2.9965,-2.9975,-2.997,-2.9968,-2.9967,-2.9967,-2.9967,0,-2.9675,-2.9687,-2.9735,-2.9761,-2.9768,-2.9799,-2.982,-2.9846,-2.9855,-2.9891,-2.99,-2.9914,-2.9946,-2.9955,-2.9993,-2.9996,-3.0043,-3.0041,-3.0035,-3.0035,-3.0062,-3.0059,-3.0151,-3.0163,-3.0089,-3.009,-3.009,0,-2.9715,-2.9745,-2.9775,-2.9794,-2.9809,-2.9841,-2.986,-2.9867,-2.9888,-2.9917,-2.9939,-2.9971,-2.9996,-3.0048,-3.0061,-3.009,-3.0087,-3.0117,-3.0091,-3.0089,-3.0086,-3.0083,-3.0085,-3.0122,-3.0123,-3.0123,-3.0124,0,-2.9785,-2.979,-2.9819,-2.9851,-2.9875,-2.9899,-2.9923,-2.9939,-2.9949,-2.9972,-3.0005,-3.0025,-3.0065,-3.0096,-3.0125,-3.0137,-3.0132,-3.0132,-3.014,-3.0139,-3.0134,-3.0136,-3.0047,-3.013,-3.0129,-3.0129,-3.0129,-3.0128,-2.9834,-2.986,-2.9884,-2.9917,-2.9936,-2.9958,-2.9983,-2.9996,-3.0024,-3.0057,-3.0059,-3.0095,-3.0117,-3.0156,-3.017,-3.0197,-3.0188,-3.02,-3.0202,-3.0205,-3.0206,-3.0131,-3.0203,-3.0203,-3.0203,-3.0202,-3.0202,0,-2.9902,-2.9918,-2.9948,-2.9981,-3.0007,-3.0001,-3.0027,-3.0048,-3.008,-3.0102,-3.0127,-3.0165,-3.0195,-3.0211,-3.024,-3.0259,-3.0257,-3.0266,-3.0264,-3.0267,-3.0214,-3.0204,-3.0267,-3.0267,-3.0267,-3.0267,-3.0267,-3.0267,-2.9941,-2.9984,-2.9991,-3.0043,-3.0058,-3.0094,-3.0109,-3.0129,-3.0146,-3.0189,-3.0214,-3.0225,-3.0243,-3.0274,-3.0301,-3.0305,-3.0315,-3.0325,-3.0328,-3.0277,-3.0271,-3.0264,-3.0255,-3.0328,-3.0328,-3.0378,-3.0379,-3.0379]}]]